Temp
59 59 59 59 59 59 59 59 58 58 59 60 60 61 61 61 60 78 83 88 86 72 73 96 94 96 97 93 96 96 78 65 60 73 74 84 81 86 89 82 84 85 83 82 83
59 59 59 59 59 59 59 58 58 58 59 60 60 60 60 60 80 85 88 72 72 72 90 91 90 94 89 91 92 86 72 65 63 85 81 84 83 83 81 80 80 80 84 83 82
58 58 58 59 59 58 58 58 57 58 59 59 60 60 60 62 80 87 73 72 72 76 96 98 97 94 86 91 89 87 77 79 82 86 87 85 84 87 81 77 81 77 78 79 79
57 57 58 58 58 58 58 57 57 58 58 59 60 60 60 78 72 90 73 72 72 90 93 92 92 86 83 83 90 82 85 84 87 87 86 84 88 83 84 82 89 83 82 79 77
57 57 57 57 58 58 57 57 57 57 58 58 60 60 75 79 83 88 71 74 90 90 90 91 88 87 81 86 88 84 83 82 88 87 86 87 84 83 83 87 87 85 81 78 78
56 56 56 56 57 57 57 56 56 56 57 58 59 59 75 73 99 94 95 93 95 92 91 94 90 92 87 85 84 83 82 85 88 86 86 82 83 83 86 87 83 81 80 79 79
56 56 56 56 56 56 56 56 56 56 57 58 60 73 78 81 100 101 98 95 96 95 91 96 97 89 89 83 90 87 80 84 72 67 69 85 78 78 73 72 83 81 80 80 81
56 56 55 55 55 55 55 55 55 56 58 59 60 78 75 98 100 99 99 96 99 99 97 98 97 89 86 89 85 80 80 71 74 68 71 79 70 75 78 73 79 80 81 80 81
56 56 55 55 55 54 55 55 55 58 60 62 71 77 75 85 90 97 99 92 95 96 96 97 92 84 85 77 73 72 62 62 65 79 80 79 74 74 75 76 76 80 81 80 81
56 55 55 55 54 54 54 55 65 62 68 79 85 75 81 83 92 95 99 96 91 89 87 85 83 77 78 74 63 58 58 58 58 73 74 76 77 72 75 70 72 76 80 79 80
55 55 55 54 54 54 58 75 75 70 78 77 80 80 85 92 95 92 95 91 90 84 74 80 72 68 75 78 79 74 67 65 72 79 80 77 78 81 73 65 65 75 72 80 79
55 55 54 54 54 54 62 75 71 69 65 82 83 84 87 89 81 86 95 81 79 72 78 74 68 77 81 81 78 76 72 71 77 82 78 76 75 81 76 72 62 60 59 66 81
54 54 54 53 54 61 75 72 81 78 65 77 85 83 83 85 79 82 89 83 77 73 74 70 75 82 79 76 74 74 71 70 71 78 80 75 72 77 76 75 68 62 61 62 82
54 54 53 53 58 73 73 78 80 76 61 71 75 81 86 85 76 90 92 84 78 72 75 74 81 78 77 74 76 67 78 74 74 70 63 76 59 73 76 69 68 66 69 66 83
54 53 53 52 58 72 74 77 78 71 34 75 78 92 88 78 83 82 93 84 74 74 76 71 74 75 72 74 78 71 79 75 73 69 67 69 64 71 74 68 70 72 66 62 66
53 53 53 65 63 72 76 73 71 53 35 68 78 74 75 77 80 85 83 87 85 76 78 75 84 80 78 80 80 80 75 73 72 68 56 66 65 66 69 74 73 72 73 74 83
53 53 53 62 66 73 71 68 53 35 68 67 70 74 72 72 73 78 75 71 68 62 62 72 74 80 81 73 78 75 66 54 52 53 53 70 64 67 77 78 80 79 82 83 84
52 52 57 65 74 71 67 60 36 57 62 75 74 74 68 73 72 74 72 67 73 72 67 62 59 73 80 73 69 70 67 54 45 49 56 69 59 67 80 81 80 81 81 82 81
52 59 60 65 67 67 61 42 46 60 71 68 72 66 67 72 73 71 69 69 73 73 63 62 64 80 80 80 76 68 63 72 60 62 55 61 68 77 82 78 78 78 77 76 78
55 58 63 70 69 64 55 48 58 68 72 70 62 68 63 68 67 68 67 73 73 77 77 70 60 75 78 80 78 72 75 59 60 42 43 55 60 63 72 75 76 76 75 75 76
53 54 68 70 67 58 44 52 60 71 72 65 64 64 68 67 69 66 68 73 76 76 78 73 65 65 74 68 66 67 63 64 64 59 47 46 56 74 73 76 75 77 75 74 74
53 49 66 68 53 57 50 58 61 67 72 67 67 65 65 69 67 67 67 71 74 75 69 74 66 57 64 75 76 72 67 66 51 52 57 56 55 77 76 78 77 78 76 75 74
52 57 64 64 46 51 59 59 64 64 66 65 63 67 69 65 61 67 69 71 73 72 67 70 61 50 58 67 72 66 69 68 65 63 55 49 54 77 79 78 78 76 75 74 73
52 40 52 57 60 56 55 57 57 67 65 68 66 68 65 63 67 64 67 67 70 71 56 62 63 58 50 58 66 59 64 66 63 52 54 57 62 70 74 75 77 76 73 72 72
50 47 55 43 50 54 57 59 57 56 63 67 63 64 62 57 60 61 66 65 67 59 65 66 56 62 64 67 67 66 65 65 61 62 55 60 62 69 74 76 76 77 75 73 71
47 51 57 54 56 53 53 55 57 59 61 58 58 63 64 59 61 59 65 65 61 66 64 67 55 60 57 64 65 62 65 66 67 66 65 65 63 75 78 79 78 78 77 73 72
56 57 52 49 51 51 53 55 58 63 64 65 63 61 60 62 66 63 63 64 63 61 62 61 57 55 49 61 60 51 61 64 65 68 67 60 68 76 74 76 77 77 77 76 74
MSLP
1020.37 1020.22 1019.79 1019.24 1018.89 1018.56 1018.06 1017.48 1016.88 1016.42 1016.04 1015.79 1015.38 1014.92 1014.55 1014.16 1013.29 1013.04 1011.30 1009.61 1009.81 1009.78 1010.33 1009.36 1009.06 1008.09 1007.35 1006.50 1005.51 1005.75 1006.39 1008.76 1009.98 1007.61 1007.20 1006.99 1007.18 1007.80 1008.24 1009.20 1009.89 1010.68 1011.24 1012.67 1014.66
1020.68 1020.22 1019.59 1019.17 1018.92 1018.51 1018.06 1017.52 1016.96 1016.39 1015.84 1015.54 1015.30 1014.85 1014.49 1014.27 1012.84 1010.93 1009.35 1009.57 1009.60 1009.76 1009.89 1008.79 1008.07 1007.38 1006.75 1005.95 1005.51 1005.52 1006.83 1008.81 1009.12 1006.34 1006.27 1006.31 1006.77 1007.39 1008.27 1008.75 1009.61 1010.90 1012.00 1013.45 1014.72
1020.51 1020.09 1019.53 1019.29 1018.95 1018.48 1017.95 1017.46 1016.88 1016.31 1015.72 1015.27 1015.09 1014.76 1014.41 1014.22 1012.14 1009.07 1009.14 1009.39 1009.49 1009.66 1009.02 1007.91 1007.23 1006.78 1006.49 1005.56 1005.35 1005.22 1005.72 1006.36 1006.25 1006.44 1005.97 1005.74 1006.25 1006.88 1007.60 1007.84 1008.58 1010.56 1012.10 1013.64 1014.77
1020.47 1020.03 1019.65 1019.24 1018.77 1018.25 1017.85 1017.51 1016.84 1016.26 1015.64 1015.12 1014.82 1014.58 1014.12 1013.34 1010.27 1008.75 1009.15 1009.18 1009.29 1009.49 1009.21 1008.04 1007.37 1006.90 1006.35 1005.42 1005.03 1005.07 1005.60 1005.85 1005.76 1006.19 1006.12 1005.81 1005.72 1006.41 1007.21 1007.64 1007.84 1009.88 1011.79 1013.21 1014.53
1020.53 1020.06 1019.60 1019.19 1018.67 1018.15 1017.63 1017.18 1016.64 1016.00 1015.52 1014.99 1014.68 1014.46 1013.35 1011.64 1009.06 1008.71 1009.32 1009.34 1009.28 1009.52 1008.70 1007.47 1007.10 1006.59 1005.94 1005.15 1004.82 1005.05 1005.83 1006.52 1005.86 1006.36 1006.41 1006.46 1006.30 1006.43 1007.16 1007.84 1008.73 1010.10 1011.88 1013.04 1014.14
1020.49 1019.98 1019.57 1018.98 1018.49 1017.97 1017.32 1016.78 1016.32 1015.74 1015.18 1014.77 1014.59 1014.51 1013.39 1010.03 1007.28 1008.26 1008.36 1008.81 1008.68 1008.84 1008.05 1007.08 1006.62 1006.21 1005.79 1005.50 1005.25 1005.81 1005.88 1006.04 1005.90 1006.43 1006.61 1006.92 1006.60 1007.28 1007.06 1008.04 1009.51 1010.50 1011.76 1012.70 1013.52
1020.52 1019.98 1019.46 1018.87 1018.25 1017.48 1016.79 1016.21 1015.71 1015.16 1014.67 1014.42 1014.36 1013.82 1011.80 1008.68 1007.13 1007.23 1007.80 1008.13 1008.34 1008.07 1007.45 1006.76 1006.48 1006.53 1006.34 1005.92 1005.67 1005.75 1006.15 1006.18 1007.91 1007.97 1009.02 1006.98 1006.95 1007.55 1008.82 1010.95 1009.57 1010.37 1011.17 1012.39 1013.10
1020.48 1019.88 1019.28 1018.68 1018.01 1017.12 1016.30 1015.57 1014.91 1014.42 1014.09 1014.05 1014.09 1013.21 1010.32 1007.44 1007.36 1007.06 1007.28 1007.58 1007.74 1007.46 1007.27 1006.83 1006.79 1007.16 1007.02 1006.60 1006.33 1006.37 1006.56 1006.92 1008.82 1009.47 1008.63 1007.97 1007.18 1007.95 1008.97 1009.26 1009.59 1009.84 1010.56 1011.72 1012.53
1020.62 1019.96 1019.26 1018.49 1017.64 1016.74 1015.87 1014.91 1014.23 1013.81 1013.72 1013.77 1013.64 1012.18 1009.19 1008.02 1007.57 1007.05 1006.88 1007.04 1007.33 1007.30 1007.37 1007.38 1007.79 1007.57 1007.21 1006.93 1006.73 1007.41 1007.82 1009.22 1009.54 1008.73 1007.77 1007.06 1006.71 1007.75 1008.64 1009.40 1009.57 1009.47 1009.58 1010.68 1011.94
1020.62 1019.90 1019.17 1018.42 1017.53 1016.43 1015.40 1013.78 1013.16 1013.47 1013.22 1012.72 1011.42 1010.98 1008.50 1007.12 1006.58 1006.67 1006.70 1006.79 1007.00 1007.43 1007.56 1007.81 1007.83 1007.45 1007.04 1006.65 1006.06 1007.47 1008.35 1009.44 1009.43 1007.85 1007.10 1005.89 1005.64 1006.98 1008.07 1010.21 1010.68 1009.86 1009.56 1009.52 1010.84
1020.47 1019.93 1019.16 1018.33 1017.43 1016.17 1015.31 1012.95 1013.13 1013.18 1011.73 1010.03 1008.97 1008.12 1007.03 1006.60 1006.43 1006.42 1006.58 1006.86 1006.94 1007.39 1007.52 1007.53 1007.48 1006.85 1006.24 1005.91 1005.65 1006.23 1007.38 1008.03 1006.99 1006.09 1005.06 1004.88 1005.11 1005.80 1008.08 1009.59 1011.05 1011.32 1011.01 1008.50 1009.69
1020.46 1019.84 1019.09 1018.26 1017.30 1016.09 1015.30 1013.52 1013.93 1014.09 1011.83 1009.17 1008.47 1007.79 1007.64 1007.23 1006.89 1006.70 1006.51 1007.12 1007.02 1007.02 1007.30 1007.36 1006.68 1006.50 1006.05 1005.60 1005.49 1005.82 1005.96 1005.76 1005.28 1004.78 1004.99 1004.93 1004.99 1005.36 1007.55 1009.33 1010.07 1012.08 1013.03 1012.44 1009.58
1020.53 1019.97 1019.17 1018.18 1017.11 1015.84 1014.42 1014.18 1013.54 1013.36 1012.04 1008.05 1006.83 1006.83 1006.96 1007.49 1006.67 1006.00 1006.28 1006.72 1006.77 1006.90 1006.62 1006.48 1005.91 1005.66 1005.68 1005.60 1005.40 1005.24 1005.67 1005.78 1005.33 1004.81 1004.54 1004.65 1004.43 1004.77 1006.49 1008.13 1010.05 1010.87 1010.53 1011.70 1008.22
1020.51 1019.98 1019.35 1018.31 1017.20 1015.19 1014.12 1014.09 1013.74 1013.83 1011.44 1007.41 1006.36 1005.69 1005.95 1006.38 1006.25 1005.62 1005.52 1006.37 1006.47 1006.29 1006.38 1005.95 1005.50 1005.17 1005.02 1005.14 1005.34 1005.37 1005.35 1005.86 1005.34 1005.25 1004.62 1004.42 1004.37 1003.98 1005.41 1007.58 1009.03 1009.52 1010.31 1010.28 1007.97
1020.45 1020.03 1019.39 1019.41 1017.69 1014.90 1014.60 1014.40 1013.96 1013.71 1011.03 1006.26 1005.12 1004.79 1004.84 1005.60 1004.71 1004.97 1004.88 1005.78 1005.76 1005.94 1006.05 1005.65 1005.40 1005.02 1005.07 1004.97 1005.30 1005.47 1005.46 1005.72 1005.88 1005.82 1005.42 1004.78 1004.22 1003.77 1005.07 1006.95 1007.65 1008.47 1008.72 1010.27 1010.99
1020.24 1019.95 1019.54 1017.22 1017.18 1015.30 1014.94 1014.81 1014.13 1013.01 1009.69 1006.08 1004.97 1005.03 1004.97 1005.21 1004.83 1004.22 1004.72 1005.34 1005.67 1005.73 1005.55 1005.36 1005.07 1004.84 1004.85 1004.86 1005.25 1005.64 1005.96 1006.42 1006.62 1006.48 1005.98 1005.16 1004.48 1003.71 1004.21 1004.71 1005.96 1007.60 1008.34 1008.72 1007.97
1020.03 1019.77 1019.74 1018.66 1015.90 1015.48 1015.41 1014.59 1013.42 1011.18 1008.24 1005.82 1004.82 1004.66 1004.71 1004.53 1004.82 1004.36 1004.64 1005.14 1005.28 1005.48 1005.34 1005.09 1004.78 1004.90 1004.90 1005.06 1005.24 1005.73 1006.72 1006.98 1006.90 1006.46 1005.75 1004.80 1004.22 1003.74 1003.50 1004.19 1004.80 1005.72 1006.32 1006.78 1007.14
1019.58 1019.32 1018.14 1017.10 1015.42 1015.67 1015.42 1014.32 1012.07 1009.17 1007.32 1005.26 1004.43 1004.27 1004.27 1004.21 1004.31 1004.36 1004.60 1004.93 1005.19 1005.05 1004.80 1004.75 1004.33 1004.41 1004.66 1005.21 1005.49 1005.77 1006.53 1007.15 1007.05 1006.73 1005.95 1005.14 1004.64 1003.77 1003.78 1004.28 1005.09 1005.68 1006.23 1006.74 1007.29
1019.23 1017.66 1016.83 1015.73 1016.05 1016.04 1015.06 1013.10 1010.22 1008.48 1006.37 1005.71 1004.88 1004.27 1003.93 1003.82 1003.69 1004.23 1004.31 1004.19 1004.41 1004.84 1004.77 1004.36 1003.73 1003.53 1003.72 1004.48 1005.72 1005.99 1005.94 1006.48 1006.98 1007.33 1007.01 1006.01 1004.55 1003.61 1002.86 1003.72 1004.83 1005.61 1006.72 1007.47 1007.96
1018.82 1017.12 1014.80 1014.45 1015.30 1015.32 1014.25 1011.37 1009.57 1008.03 1006.49 1005.90 1004.52 1004.45 1003.78 1003.53 1003.58 1003.90 1003.97 1003.95 1003.78 1004.03 1004.63 1004.57 1004.34 1003.74 1003.60 1004.31 1005.06 1005.64 1006.33 1006.76 1007.24 1008.11 1007.85 1006.85 1005.51 1004.24 1003.60 1003.86 1005.00 1005.72 1006.77 1007.73 1008.41
1018.73 1016.09 1012.66 1013.80 1014.85 1014.32 1012.21 1010.78 1009.58 1007.91 1006.95 1006.70 1005.65 1004.84 1003.85 1003.21 1003.28 1003.75 1003.71 1003.93 1003.95 1004.01 1004.17 1004.68 1005.11 1004.94 1004.32 1004.60 1005.25 1006.00 1006.59 1007.09 1007.44 1007.99 1008.03 1007.24 1005.91 1004.54 1004.46 1004.52 1005.09 1005.56 1006.68 1007.80 1008.78
1017.63 1014.70 1013.30 1013.51 1013.86 1012.34 1011.26 1010.29 1009.49 1008.02 1007.18 1007.21 1006.70 1005.88 1004.72 1003.94 1003.33 1003.26 1003.77 1004.07 1004.97 1005.00 1004.91 1004.92 1005.44 1005.37 1004.95 1004.68 1005.39 1005.83 1006.03 1006.84 1007.56 1008.09 1008.00 1007.26 1006.02 1004.85 1004.72 1004.66 1005.09 1005.95 1006.80 1007.99 1008.86
1016.21 1013.84 1013.30 1013.26 1012.03 1011.05 1010.43 1009.77 1008.95 1008.12 1007.27 1007.19 1006.99 1006.29 1005.56 1004.84 1004.48 1004.25 1004.44 1005.65 1005.85 1005.89 1006.41 1006.36 1006.09 1006.18 1005.60 1005.43 1005.21 1005.48 1006.03 1006.46 1007.02 1007.47 1007.32 1007.09 1005.95 1005.38 1004.65 1004.51 1004.96 1005.71 1006.62 1007.86 1008.97
1015.96 1013.40 1013.08 1012.75 1011.66 1010.41 1009.61 1008.82 1008.37 1007.87 1007.71 1007.20 1006.81 1006.68 1006.18 1005.80 1005.52 1005.11 1005.29 1006.43 1006.84 1006.87 1007.76 1007.82 1007.03 1006.43 1006.06 1005.78 1005.59 1005.95 1006.30 1006.69 1007.09 1007.12 1007.09 1006.28 1005.55 1005.08 1004.58 1004.26 1004.33 1004.80 1006.22 1007.68 1008.79
1015.98 1013.29 1012.13 1011.61 1011.29 1010.43 1009.39 1008.46 1007.84 1007.86 1008.13 1007.61 1007.01 1006.83 1006.68 1006.65 1006.39 1006.01 1006.18 1006.70 1007.52 1007.99 1008.31 1008.20 1007.50 1007.13 1006.64 1006.24 1005.90 1005.43 1005.51 1005.85 1006.24 1006.37 1006.30 1006.17 1005.54 1004.99 1004.31 1003.87 1003.84 1004.68 1005.57 1007.34 1008.47
1015.19 1013.02 1011.63 1011.23 1010.55 1010.32 1009.18 1008.05 1007.51 1007.64 1007.67 1007.70 1007.59 1007.57 1007.47 1007.33 1007.11 1006.97 1007.00 1007.15 1007.73 1007.92 1008.32 1008.21 1008.28 1008.04 1007.40 1007.07 1006.54 1006.00 1005.70 1005.41 1005.33 1005.28 1005.34 1005.44 1004.98 1004.89 1004.26 1003.76 1003.55 1003.90 1004.84 1006.07 1007.56
1014.81 1013.85 1013.33 1011.37 1010.77 1009.79 1008.72 1008.38 1007.51 1007.19 1007.38 1007.70 1008.01 1008.21 1008.07 1008.41 1008.25 1008.73 1009.04 1008.75 1008.82 1008.82 1008.58 1008.57 1008.88 1008.73 1008.10 1007.94 1007.33 1006.32 1006.21 1005.79 1005.48 1005.29 1005.17 1004.84 1004.53 1004.21 1003.91 1003.56 1003.49 1003.65 1004.02 1004.94 1006.32
Wind_Speed
18 18 17 18 18 18 18 18 18 19 17 16 15 15 15 14 16 7 11 7 7 13 4 11 14 14 15 15 11 12 2 6 15 8 4 9 7 4 8 9 6 5 11 23 23
18 19 19 19 17 17 18 18 18 19 18 17 15 14 13 13 8 15 13 9 12 11 9 14 14 14 11 12 7 5 8 11 22 5 5 11 10 14 7 13 10 12 16 22 22
19 19 20 19 19 18 18 19 19 19 19 18 15 14 12 12 9 18 14 12 11 11 18 15 15 10 13 15 12 7 2 12 8 8 8 3 6 11 9 13 15 18 20 22 21
20 20 20 20 20 20 18 18 19 19 19 18 16 14 13 7 3 7 3 10 10 11 15 20 8 12 14 16 12 7 5 14 8 9 7 7 2 10 6 4 11 23 22 22 20
20 20 21 21 21 21 19 19 18 19 19 18 16 13 9 8 14 9 8 6 9 10 15 13 12 13 15 14 11 8 9 11 6 2 3 5 7 3 8 10 23 23 21 20 18
19 20 21 22 22 22 20 19 18 18 18 17 14 10 7 13 8 13 13 10 12 13 16 15 12 8 11 14 10 4 4 16 4 2 3 7 6 4 7 16 22 21 18 18 19
20 20 21 22 22 23 22 21 19 18 17 15 10 6 10 16 5 14 14 12 14 16 16 12 11 6 11 15 10 9 13 13 15 22 18 3 11 10 21 25 11 15 17 17 18
22 21 22 22 22 24 24 23 21 18 14 11 6 7 8 6 7 7 12 13 14 15 15 12 8 6 13 14 12 11 15 11 9 17 15 19 6 12 18 13 12 16 16 16 18
20 21 22 23 24 25 25 24 20 12 8 4 6 8 11 2 10 12 13 14 14 13 10 6 5 12 14 13 12 6 6 11 15 4 17 15 6 15 14 12 12 16 18 17 16
20 21 22 23 24 26 27 25 6 8 6 9 11 7 9 13 11 15 12 12 12 11 12 10 11 13 13 13 13 4 3 2 14 13 19 22 12 22 21 9 19 14 18 20 19
19 21 22 24 25 27 16 6 4 5 12 9 5 10 1 2 3 11 13 8 12 13 14 15 12 14 17 17 17 17 11 12 26 19 13 10 12 5 20 19 22 13 21 21 20
19 21 22 24 25 27 11 7 6 3 9 16 19 12 6 8 9 13 14 12 13 16 16 16 16 18 17 19 13 16 12 15 14 10 9 12 14 14 20 8 9 10 19 28 21
17 20 22 25 27 13 4 7 6 5 7 12 15 18 12 11 11 16 20 18 16 17 17 18 18 18 15 16 17 13 11 14 16 14 15 14 14 12 10 10 10 13 21 19 15
16 18 20 26 8 8 1 7 6 3 6 10 8 9 18 12 10 19 22 18 15 18 18 16 18 16 11 10 11 12 15 10 14 11 12 3 11 15 7 8 11 14 9 14 22
14 17 19 12 11 5 6 7 4 4 4 7 14 5 12 16 5 19 17 17 21 19 16 16 18 13 15 15 12 14 13 11 13 15 15 17 11 13 11 4 10 8 8 10 30
14 15 19 5 7 8 8 9 4 1 9 6 7 11 13 19 17 8 17 14 18 21 20 20 17 15 15 12 11 13 10 10 13 12 12 16 15 13 4 7 13 16 14 21 15
13 15 12 11 2 5 7 4 5 7 6 9 10 12 17 17 20 13 19 16 16 15 17 19 20 18 10 10 11 5 6 7 9 9 10 17 8 9 12 12 9 6 5 5 3
14 16 9 10 5 4 5 7 7 7 18 3 10 14 16 18 19 21 16 16 20 19 11 17 16 17 15 16 13 14 11 6 7 9 12 5 3 7 2 11 10 6 4 3 2
17 7 7 6 11 6 7 10 9 12 12 19 11 13 15 17 12 20 20 18 19 20 18 13 18 16 20 14 14 16 14 12 13 11 11 13 19 10 12 14 11 9 6 4 4
6 9 12 11 9 7 8 16 13 13 20 11 18 13 16 18 16 13 19 16 19 19 18 17 14 15 8 7 8 12 11 10 6 2 10 10 14 12 14 6 8 9 7 5 2
5 6 2 13 8 8 11 13 21 18 8 9 13 18 16 17 19 17 15 9 11 13 13 14 12 14 13 7 12 12 9 9 9 8 9 10 9 2 9 6 7 4 11 8 5
5 8 9 10 9 9 13 18 18 21 12 14 10 16 17 15 16 19 18 5 3 7 11 14 5 12 18 9 10 15 14 15 8 10 9 10 10 14 10 7 6 2 10 9 8
6 8 6 9 9 13 16 23 22 21 17 15 14 13 14 11 11 10 11 8 4 3 1 4 6 10 14 17 13 9 12 11 8 11 15 13 11 13 15 3 3 5 12 10 9
5 3 4 10 12 16 19 19 22 15 17 18 15 16 14 11 14 6 13 7 2 6 5 3 9 12 10 12 10 12 16 14 13 10 11 13 17 14 14 14 10 12 14 12 10
5 6 9 6 13 17 16 15 17 17 18 14 16 16 12 13 15 14 12 12 5 7 3 5 9 11 13 15 17 20 16 19 17 16 15 14 20 17 16 13 2 8 16 14 13
5 4 5 10 15 19 16 19 20 20 14 19 13 16 13 15 14 13 14 12 9 15 10 8 6 11 14 16 16 19 18 19 17 16 20 19 20 16 18 15 13 5 14 15 14
6 9 4 10 10 14 15 19 19 15 15 11 15 16 15 10 4 10 8 7 8 2 6 7 6 9 12 12 15 17 17 19 19 19 18 16 14 11 15 14 11 10 7 11 15
Wind_Direction
353 348 348 351 349 342 338 334 332 330 328 324 325 326 327 326 304 226 239 237 178 168 166 234 224 243 241 258 260 274 277 100 333 346 133 130 159 141 91 128 161 152 59 142 140
349 347 349 349 345 341 335 332 330 325 323 321 322 323 322 330 274 252 210 159 157 161 210 220 216 232 253 254 275 288 123 157 226 65 87 150 203 153 182 153 159 119 118 138 147
348 346 347 344 340 337 334 329 327 323 320 317 319 319 319 316 269 237 160 162 167 185 230 214 236 244 265 276 280 259 194 200 195 50 347 139 208 155 207 194 166 147 139 145 157
345 343 342 339 337 334 330 325 322 318 315 312 315 318 318 253 276 73 139 165 162 215 240 259 241 247 251 264 245 256 352 329 47 50 326 297 233 153 223 99 160 141 150 153 164
342 340 339 337 334 329 326 322 317 313 308 306 310 325 312 230 252 132 141 149 167 206 242 232 228 240 259 267 265 246 16 297 114 228 296 359 259 174 188 114 116 134 149 159 166
339 337 336 335 331 326 322 318 310 303 299 298 302 314 251 260 87 143 171 162 198 213 242 235 238 271 300 301 299 91 332 249 218 39 202 269 182 194 205 131 127 140 157 164 173
337 334 333 332 328 324 320 314 305 297 292 288 285 270 266 249 322 153 179 191 208 204 239 246 267 319 254 280 297 287 282 268 48 53 317 211 265 181 56 3 149 159 162 170 178
335 332 331 331 327 323 317 312 304 295 287 271 246 239 260 230 291 234 190 198 210 231 244 288 336 273 287 296 291 275 260 280 69 137 217 264 288 93 134 169 181 181 171 169 179
332 330 330 329 326 321 317 308 297 287 264 241 202 227 253 81 222 230 214 214 209 228 240 292 290 262 252 246 258 18 22 11 314 278 273 246 259 156 157 175 224 194 171 165 172
329 329 328 327 325 318 320 293 264 313 221 203 262 206 241 231 200 219 206 224 201 209 222 218 241 243 239 258 258 122 23 323 248 227 233 255 264 152 169 118 244 195 183 162 167
329 329 327 326 323 317 333 327 209 188 231 226 187 230 140 117 22 207 195 203 207 208 220 222 234 238 241 237 264 321 181 230 233 241 300 316 303 303 167 186 225 348 329 163 160
327 328 326 324 321 316 293 356 42 303 301 256 249 230 274 337 219 222 203 197 212 212 212 233 224 247 250 272 268 253 275 295 305 312 346 298 289 291 163 143 108 107 291 290 167
324 326 325 323 318 296 334 22 334 326 262 281 222 227 215 213 237 206 201 201 208 224 221 227 235 220 238 268 276 283 288 284 283 314 297 250 289 252 119 138 127 160 186 251 182
321 323 325 325 299 326 318 357 358 323 268 236 203 234 214 197 242 249 192 205 227 221 230 247 240 265 271 249 254 273 274 307 306 282 284 291 275 295 166 146 192 204 225 342 187
318 321 321 326 310 292 18 345 327 248 353 246 167 93 192 188 258 204 218 204 222 225 235 238 244 249 248 257 253 263 288 319 321 304 307 293 286 296 157 137 203 200 110 39 282
312 318 327 272 214 282 341 318 267 196 239 234 157 199 212 201 239 187 212 201 227 238 240 242 260 246 247 268 258 275 293 299 286 268 260 265 268 277 148 222 179 204 189 210 184
304 304 301 303 249 344 316 249 217 184 220 231 208 201 210 202 218 218 191 200 219 216 235 246 229 250 261 256 255 233 269 270 262 250 252 259 309 306 342 78 95 108 172 131 350
303 301 273 247 269 298 259 221 219 236 233 30 193 198 209 217 207 218 208 214 217 226 226 228 231 216 218 226 249 233 214 228 260 270 282 351 274 250 209 128 118 102 78 47 195
304 268 235 222 227 236 229 219 206 223 208 233 232 253 210 222 214 212 215 221 218 216 234 248 243 234 210 199 206 247 256 227 256 284 295 287 299 282 274 143 128 127 124 146 245
306 300 255 183 189 206 225 231 219 242 260 292 231 210 222 215 199 224 215 222 234 222 214 253 271 271 172 185 224 234 273 266 230 185 267 274 285 286 8 98 104 129 134 121 237
268 231 157 145 174 211 220 221 231 251 258 251 247 260 243 243 203 217 230 209 226 250 239 215 252 262 265 181 219 223 245 265 278 213 232 259 259 64 4 63 44 86 127 141 174
266 220 153 157 196 213 226 220 242 229 213 248 279 278 275 249 262 201 216 221 42 249 256 203 238 238 250 217 209 244 239 221 228 247 265 277 266 299 328 290 134 335 131 144 163
251 233 179 199 214 223 220 225 233 232 246 219 234 248 272 276 261 244 238 95 90 184 291 333 224 246 254 245 221 233 250 280 286 242 237 245 258 257 259 169 171 194 149 146 160
269 232 155 207 245 233 226 219 222 219 238 245 239 237 234 248 263 238 226 125 49 51 14 15 252 228 231 246 239 205 236 243 256 254 266 265 279 277 288 283 219 194 148 156 168
251 255 196 202 214 238 249 228 217 203 222 239 234 237 218 226 233 236 260 132 177 141 253 242 246 268 262 262 263 270 230 215 227 245 246 262 265 270 270 258 306 113 152 168 176
239 232 253 241 212 218 227 230 208 221 196 227 224 220 215 233 242 237 230 219 200 183 215 204 243 258 263 268 265 268 273 278 277 240 235 238 248 263 278 282 287 192 173 169 178
235 301 269 260 237 212 219 222 230 222 199 219 210 234 218 247 359 45 27 4 49 284 218 218 213 247 256 256 271 255 252 261 266 274 281 276 282 254 270 286 283 271 188 179 174